| Date | Time | Temp. (oF) | Dew Point (oF) | Rel. Hum. (%) | Press. (in.) | Wind Dir. | Wind Speed (mph) | Hourly Rainfall (in.) |
|
|---|---|---|---|---|---|---|---|---|---|
| 1 | 09/02 | 00:00 | 63 | 62 | 99 | 30.23 | NNW | 7 | 0.00 |
| 2 | 09/01 | 23:00 | 63 | 62 | 99 | 30.23 | NNW | 5 | 0.00 |
| 3 | 09/01 | 22:00 | 63 | 63 | 100 | 30.25 | N | 5 | 0.00 |
| 4 | 09/01 | 21:00 | 63 | 63 | 100 | 30.24 | N | 4 | 0.00 |
| 5 | 09/01 | 20:00 | 63 | 63 | 100 | 30.24 | NE | 5 | 0.00 |
| 6 | 09/01 | 19:00 | 63 | 63 | 100 | 30.24 | NE | 7 | 0.00 |
| 7 | 09/01 | 18:00 | 63 | 63 | 100 | 30.26 | NNE | 2 | 0.01 |
| 8 | 09/01 | 17:00 | 62 | 62 | 100 | 30.27 | NNE | 7 | 0.00 |
| 9 | 09/01 | 16:00 | 62 | 62 | 100 | 30.28 | NE | 7 | 0.00 |
| 10 | 09/01 | 15:00 | 62 | 62 | 100 | 30.30 | NNE | 5 | 0.00 |
| 11 | 09/01 | 14:00 | 60 | 59 | 100 | 30.33 | NNE | 4 | 0.00 |
| 12 | 09/01 | 13:00 | 59 | 59 | 100 | 30.33 | NNW | 4 | 0.00 |
| 13 | 09/01 | 12:00 | 58 | 58 | 100 | 30.35 | NNE | 9 | 0.02 |
| 14 | 09/01 | 11:00 | 58 | 58 | 100 | 30.36 | NNW | 3 | 0.03 |
| 15 | 09/01 | 10:00 | 59 | 59 | 100 | 30.38 | NNE | 9 | 0.05 |
| 16 | 09/01 | 09:00 | 58 | 58 | 100 | 30.37 | NE | 9 | 0.03 |
| 17 | 09/01 | 08:00 | 58 | 58 | 100 | 30.38 | NNW | 4 | 0.05 |
| 18 | 09/01 | 07:00 | 58 | 58 | 100 | 30.38 | N | 5 | 0.01 |
| 19 | 09/01 | 06:00 | 58 | 56 | 96 | 30.38 | NNE | 4 | 0.01 |
| 20 | 09/01 | 05:00 | 60 | 58 | 94 | 30.38 | NNE | 7 | 0.00 |
| 21 | 09/01 | 04:00 | 61 | 57 | 89 | 30.39 | NNE | 3 | 0.00 |
| 22 | 09/01 | 03:00 | 63 | 58 | 84 | 30.40 | ENE | 3 | 0.00 |
| 23 | 09/01 | 02:00 | 64 | 55 | 75 | 30.42 | NE | 4 | 0.00 |
| 24 | 09/01 | 01:00 | 65 | 54 | 69 | 30.43 | ENE | 8 | 0.00 |